Regional Weather Roundup
Issued by NWS Binghamton, NY

Home | Current Version | Previous Version | Text Only | Print | Product List | Glossary On
Versions: 1 2 3 4 5 6 7 8 9 10 11 12 13 14 15 16 17 18 19 20 21 22 23 24 25 26 27
000
ASUS41 KBGM 301510
RWRBGM

REGIONAL WEATHER ROUNDUP
NATIONAL WEATHER SERVICE BINGHAMTON NY
1100 AM EDT SAT JUL 30 2016

Note: "fair" indicates few or no clouds below 12,000 feet with no
significant weather and/or obstructions to visibility.

* = Station(s) that does not report precipitation, such as rain,
snow, etc, also no thunder or fog.

NYZ009-015>018-022>025-036-037-044>046-055>057-062-301600
...Central New York...

CITY           SKY/WX    TMP DP  RH WIND       PRES   REMARKS
Binghamton     LGT RAIN  64  60  87 E3        30.08R
Cortland       HVY RAIN  64  63  94 CALM      30.09R
Dansville      LGT RAIN  65  62  90 CALM      30.06F
Elmira         CLOUDY    69  62  78 NE5       30.05R
Ithaca         RAIN      63  62  97 NE6       30.08S FOG
Hamilton       CLOUDY    72  63  73 CALM      30.08R
Hornell        LGT RAIN  66  63  88 CALM      30.11S
Monticello     MOSUNNY   73  64  73 E8        30.08S
Norwich        LGT RAIN  64  61  88 CALM      30.09S
Oneonta        SUNNY     66  57  72 E5        30.10S
Penn Yan       LGT RAIN  66  61  84 SW5       30.09R
Rome           CLOUDY    73  62  68 CALM      30.07S
Sidney         CLOUDY    70  70 100 CALM      30.07S
Syracuse       CLOUDY    75  63  66 E3        30.04S
$$

PAZ038>040-043-044-047-048-072-301600
...Northeast Pennsylvania...

CITY           SKY/WX    TMP DP  RH WIND       PRES   REMARKS
Hazleton       CLOUDY    75  68  78 SE8       30.08R
Scranton       PTSUNNY   83  65  54 N5        30.01S HX  85
$$
&&
KEY
WCI = Wind Chill Index
VSB = Visibility
HX  = Heat Index
$$




USA.gov is the U.S. government's official web portal to all federal, state and local government web resources and services.